FW8483 Weather Reports


Display with metric or nautical units.
time (UTC)temp
F
wind
direction
speed
MPH
gust
MPH
rain 1hr
in
rain 24hr
in
rain mn
in
humidity
%
barometer
mb
20260903053020 76 151 0.0 0.0 0.00 0.00 0.00 92 1016.0
20260903052507 77 151 0.0 0.0 0.00 0.00 0.00 92 1016.1
20260903052012 76 151 0.0 0.0 0.00 0.00 0.00 91 1016.1
20260903051518 76 151 0.0 0.0 0.00 0.00 0.00 92 1016.1
20260903051011 76 151 0.0 0.0 0.00 0.00 0.00 92 1016.0
20260903050508 76 151 0.0 0.0 0.00 0.00 0.00 92 1016.0
20260903050027 76 151 0.0 0.0 0.00 0.00 0.00 92 1015.9
20260903045508 76 46 0.0 0.0 0.00 0.00 0.00 91 1015.8
20260903045009 76 46 0.0 0.0 0.00 0.00 0.00 90 1015.8
20260903044518 77 46 0.0 0.0 0.00 0.00 0.00 91 1015.7
20260903044010 76 46 0.0 0.0 0.00 0.00 0.00 91 1015.7
20260903043512 76 46 0.0 0.0 0.00 0.00 0.00 90 1015.7
20260903043019 76 46 0.0 0.0 0.00 0.00 0.00 91 1015.8
20260903042509 76 46 0.0 0.0 0.00 0.00 0.00 91 1015.7
20260903042007 76 46 0.0 0.0 0.00 0.00 0.00 92 1015.6
20260903041520 77 46 0.0 0.0 0.00 0.00 0.00 92 1015.5
20260903041012 77 46 0.0 0.0 0.00 0.00 0.00 92 1015.6
20260903040511 77 46 0.0 0.0 0.00 0.00 0.00 92 1015.7
20260903040025 77 46 0.0 0.0 0.00 0.00 0.00 92 1015.7
20260903035510 77 46 0.0 0.0 0.00 0.00 0.00 92 1015.7
20260903035010 77 46 0.0 0.0 0.00 0.00 0.00 93 1015.7
20260903034520 77 46 0.0 0.0 0.00 0.00 0.00 93 1015.7
20260903034010 77 46 0.0 0.0 0.00 0.00 0.00 93 1015.7
20260903033509 77 46 0.0 0.0 0.00 0.00 0.00 93 1015.7
20260903033031 77 46 0.0 0.0 0.00 0.00 0.00 92 1015.6
20260903032509 77 46 0.0 0.0 0.00 0.00 0.00 92 1015.6
20260903032009 77 46 0.0 0.0 0.00 0.00 0.00 92 1015.6
20260903031529 78 46 0.0 0.0 0.00 0.00 0.00 91 1015.6
20260903031011 78 46 0.0 0.0 0.00 0.00 0.00 91 1015.6
20260903030515 78 46 0.0 0.0 0.00 0.00 0.00 90 1015.8
20260903030022 78 46 0.0 0.0 0.00 0.00 0.00 90 1015.9
20260903025513 78 46 0.0 0.0 0.00 0.00 0.00 90 1015.9
20260903025012 78 46 0.0 0.0 0.00 0.00 0.00 89 1016.0
20260903024521 78 46 0.0 0.0 0.00 0.00 0.00 90 1016.0
20260903024010 78 46 0.0 0.0 0.00 0.00 0.00 90 1016.0
20260903023510 78 46 0.0 0.0 0.00 0.00 0.00 89 1016.0
20260903023021 78 46 0.0 0.0 0.00 0.00 0.00 89 1016.1
20260903022511 79 46 0.0 0.0 0.00 0.00 0.00 89 1016.0
20260903022007 79 46 0.0 0.0 0.00 0.00 0.00 88 1016.0
20260903021507 79 46 0.0 0.0 0.00 0.00 0.00 88 1015.9
20260903021002 79 46 0.0 0.0 0.00 0.00 0.00 87 1015.8
20260903020503 79 46 0.0 0.0 0.00 0.00 0.00 86 1015.7
20260903020008 79 46 0.0 0.0 0.00 0.00 0.00 86 1015.6
20260903015504 80 46 0.0 0.0 0.00 0.00 0.00 85 1015.5
20260903015004 80 46 0.0 0.0 0.00 0.00 0.00 83 1015.5
20260903014514 80 46 0.0 0.0 0.00 0.00 0.00 83 1015.4
20260903014007 80 46 0.0 0.0 0.00 0.00 0.00 83 1015.4
20260903013510 80 46 0.0 0.0 0.00 0.00 0.00 83 1015.4
20260903013022 80 46 0.0 0.0 0.00 0.00 0.00 83 1015.4
20260903012511 81 46 0.0 0.0 0.00 0.00 0.00 81 1015.4
20260903012011 82 46 0.0 0.0 0.00 0.00 0.00 82 1015.4
20260903011504 82 46 0.0 0.0 0.00 0.00 0.00 78 1015.4
20260903011004 82 46 0.0 0.0 0.00 0.00 0.00 79 1015.3
20260903010502 83 46 0.0 0.0 0.00 0.00 0.00 79 1015.4
20260903010004 83 46 0.0 0.0 0.00 0.00 0.00 77 1015.4
20260903005504 83 46 0.0 0.0 0.00 0.00 0.00 77 1015.4
20260903005003 84 46 0.0 0.0 0.00 0.00 0.00 75 1015.5
20260903004516 84 46 0.0 0.0 0.00 0.00 0.00 74 1015.5
20260903004009 84 46 0.0 0.0 0.00 0.00 0.00 73 1015.4
20260903003507 85 46 0.0 0.0 0.00 0.00 0.00 73 1015.4
20260903003019 85 46 0.0 0.0 0.00 0.00 0.00 72 1015.4
20260903002510 85 46 0.0 0.0 0.00 0.00 0.00 71 1015.4
20260903002011 86 46 0.0 0.0 0.00 0.00 0.00 70 1015.3
20260903001524 86 46 0.0 0.0 0.00 0.00 0.00 70 1015.2
20260903001012 87 46 0.0 0.0 0.00 0.00 0.00 69 1015.2
20260903000503 87 46 0.0 0.0 0.00 0.00 0.00 68 1015.2
20260903000005 87 71 0.0 0.0 0.00 0.00 0.00 67 1015.1
20260902235503 87 78 0.0 0.0 0.00 0.00 0.00 69 1015.2
20260902235004 88 78 0.0 0.0 0.00 0.00 0.00 68 1015.2
20260902234514 88 78 0.0 0.0 0.00 0.00 0.00 68 1015.2
20260902234006 88 74 0.0 1.0 0.00 0.00 0.00 68 1015.1
20260902233506 88 74 0.0 6.0 0.00 0.00 0.00 68 1015.0
20260902233016 89 90 2.0 6.0 0.00 0.00 0.00 68 1014.9
20260902232507 89 86 0.0 3.0 0.00 0.00 0.00 66 1014.9
20260902232011 90 78 1.0 3.0 0.00 0.00 0.00 65 1014.7
20260902231524 90 84 0.0 3.0 0.00 0.00 0.00 65 1014.7
20260902231014 91 79 1.0 3.0 0.00 0.00 0.00 65 1014.7
20260902230513 91 71 0.0 2.0 0.00 0.00 0.00 64 1014.8
20260902230028 91 87 0.0 4.0 0.00 0.00 0.00 64 1014.8
20260902225503 91 94 2.0 4.0 0.00 0.00 0.00 61 1014.9
20260902225004 91 83 1.0 4.0 0.00 0.00 0.00 63 1014.9
20260902224506 91 91 1.0 4.0 0.00 0.00 0.00 60 1014.9
20260902224005 91 126 2.0 8.0 0.00 0.00 0.00 59 1014.8
20260902223503 92 73 3.0 10.0 0.00 0.00 0.00 59 1014.8
20260902223016 92 83 5.0 10.0 0.00 0.00 0.00 57 1014.8
20260902222509 92 108 6.0 9.0 0.00 0.00 0.00 56 1014.9
20260902222013 92 86 6.0 9.0 0.00 0.00 0.00 56 1014.9
20260902221522 92 68 5.0 9.0 0.00 0.00 0.00 56 1014.9
20260902221010 92 75 4.0 9.0 0.00 0.00 0.00 56 1014.9
20260902220515 92 84 4.0 9.0 0.00 0.00 0.00 57 1014.9
20260902220028 92 103 4.0 9.0 0.00 0.00 0.00 55 1015.0
20260902215520 93 85 5.0 12.0 0.00 0.00 0.00 54 1015.0
20260902215013 93 74 7.0 12.0 0.00 0.00 0.00 54 1015.1
20260902214506 93 92 5.0 9.0 0.00 0.00 0.00 54 1015.1
20260902214005 93 87 5.0 9.0 0.00 0.00 0.00 55 1015.1
20260902213505 93 74 4.0 8.0 0.00 0.00 0.00 55 1015.1
20260902213014 93 98 4.0 9.0 0.00 0.00 0.00 57 1015.1
20260902212507 93 70 3.0 8.0 0.00 0.00 0.00 55 1015.1
20260902212009 93 84 4.0 8.0 0.00 0.00 0.00 57 1015.1
20260902211520 92 26 3.0 7.0 0.00 0.00 0.00 56 1015.2
20260902211009 92 80 3.0 8.0 0.00 0.00 0.00 58 1015.2
20260902210509 93 51 6.0 11.0 0.00 0.00 0.00 1015.4
20260902210041 93 82 5.0 11.0 0.00 0.00 0.00 1015.4
20260902205514 94 30 6.0 10.0 0.00 0.00 0.00 55 1015.3
20260902205016 94 53 3.0 6.0 0.00 0.00 0.00 55 1015.3
20260902204528 93 17 3.0 8.0 0.00 0.00 0.00 54 1015.4
20260902204003 92 27 3.0 9.0 0.00 0.00 0.00 54 1015.5
20260902203505 92 57 3.0 10.0 0.00 0.00 0.00 57 1015.5
20260902203013 93 40 6.0 10.0 0.00 0.00 0.00 57 1015.5
20260902202507 93 65 4.0 10.0 0.00 0.00 0.00 54 1015.5
20260902202006 93 96 6.0 12.0 0.00 0.00 0.00 56 1015.6
20260902201531 93 88 7.0 12.0 0.00 0.00 0.00 56 1015.5
20260902201016 93 48 5.0 11.0 0.00 0.00 0.00 57 1015.6
20260902200508 93 29 0.0 7.0 0.00 0.00 0.00 56 1015.6
20260902200032 93 9 3.0 9.0 0.00 0.00 0.00 56 1015.8
20260902195514 92 97 5.0 10.0 0.00 0.00 0.00 57 1015.8
20260902195012 92 86 5.0 13.0 0.00 0.00 0.00 56 1015.9
20260902194536 92 66 4.0 13.0 0.00 0.00 0.00 58 1016.0
20260902194018 93 82 7.0 13.0 0.00 0.00 0.00 56 1016.1
20260902193514 92 42 3.0 9.0 0.00 0.00 0.00 56 1016.1
20260902193010 92 10 4.0 9.0 0.00 0.00 0.00 58 1016.2
20260902192504 93 115 6.0 11.0 0.00 0.00 0.00 57 1016.2
20260902192008 92 29 4.0 11.0 0.00 0.00 0.00 57 1016.3
20260902191518 92 97 3.0 7.0 0.00 0.00 0.00 60 1016.3
20260902191010 92 50 2.0 7.0 0.00 0.00 0.00 57 1016.5
20260902190509 92 88 3.0 6.0 0.00 0.00 0.00 60 1016.5
20260902190025 91 40 2.0 9.0 0.00 0.00 0.00 62 1016.6
20260902185515 91 94 4.0 9.0 0.00 0.00 0.00 60 1016.6
20260902185012 91 82 3.0 9.0 0.00 0.00 0.00 59 1016.7
20260902184527 91 54 5.0 11.0 0.00 0.00 0.00 59 1016.8
20260902184014 92 74 3.0 11.0 0.00 0.00 0.00 56 1016.8
20260902183516 92 106 5.0 8.0 0.00 0.00 0.00 59 1016.8
20260902183030 92 98 4.0 10.0 0.00 0.00 0.00 61 1016.8
20260902182516 91 92 3.0 10.0 0.00 0.00 0.00 59 1016.9
20260902182005 91 79 6.0 10.0 0.00 0.00 0.00 63 1017.0
20260902181513 91 105 6.0 10.0 0.00 0.00 0.00 64 1017.0
20260902181007 91 69 4.0 9.0 0.00 0.00 0.00 64 1017.0
20260902180507 91 94 5.0 7.0 0.00 0.00 0.00 63 1017.1
20260902180023 91 31 2.0 10.0 0.00 0.00 0.00 63 1017.1
20260902175510 91 64 4.0 13.0 0.00 0.00 0.00 62 1017.2
20260902175013 91 116 7.0 13.0 0.00 0.00 0.00 61 1017.2
20260902174527 90 128 3.0 11.0 0.00 0.00 0.00 64 1017.3
20260902174013 90 100 4.0 11.0 0.00 0.00 0.00 64 1017.4
20260902173515 90 113 9.0 11.0 0.00 0.00 0.00 62 1017.4
20260902173037 90 71 4.0 9.0 0.00 0.00 0.00 63 1017.4
20260902172519 89 57 3.0 8.0 0.00 0.00 0.00 68 1017.5
20260902172018 89 110 5.0 8.0 0.00 0.00 0.00 65 1017.6
20260902171509 89 352 3.0 9.0 0.00 0.00 0.00 64 1017.7
20260902171003 90 29 4.0 9.0 0.00 0.00 0.00 63 1017.7
20260902170508 90 43 3.0 11.0 0.00 0.00 0.00 63 1017.9
20260902170017 90 9 4.0 11.0 0.00 0.00 0.00 62 1017.9
20260902165510 90 37 6.0 11.0 0.00 0.00 0.00 66 1017.9
20260902165013 89 101 4.0 11.0 0.00 0.00 0.00 65 1018.0
20260902164530 89 42 4.0 12.0 0.00 0.00 0.00 66 1018.1
20260902164012 90 81 10.0 12.0 0.00 0.00 0.00 67 1018.1
20260902163513 90 91 6.0 12.0 0.00 0.00 0.00 67 1018.1
20260902163003 90 101 8.0 12.0 0.00 0.00 0.00 68 1018.2
20260902162504 89 53 4.0 11.0 0.00 0.00 0.00 70 1018.2
20260902162004 89 35 5.0 12.0 0.00 0.00 0.00 69 1018.4
20260902161509 89 66 4.0 12.0 0.00 0.00 0.00 71 1018.5
20260902161006 89 59 7.0 12.0 0.00 0.00 0.00 70 1018.5
20260902160503 89 80 4.0 8.0 0.00 0.00 0.00 69 1018.6
20260902160013 89 54 1.0 8.0 0.00 0.00 0.00 70 1018.6
20260902155509 88 76 4.0 7.0 0.00 0.00 0.00 72 1018.6
20260902155008 88 347 3.0 6.0 0.00 0.00 0.00 70 1018.6
20260902154521 88 46 3.0 6.0 0.00 0.00 0.00 72 1018.6
20260902154011 88 88 1.0 10.0 0.00 0.00 0.00 76 1018.7
20260902153512 87 316 2.0 10.0 0.00 0.00 0.00 76 1018.7
20260902153029 87 9 1.0 10.0 0.00 0.00 0.00 74 1018.7
20260902152513 87 334 4.0 10.0 0.00 0.00 0.00 75 1018.7
20260902152006 87 63 4.0 8.0 0.00 0.00 0.00 74 1018.6
20260902151508 86 59 2.0 9.0 0.00 0.00 0.00 77 1018.6
20260902151005 86 17 3.0 9.0 0.00 0.00 0.00 77 1018.6
20260902150508 86 352 5.0 9.0 0.00 0.00 0.00 78 1018.5
20260902150012 85 61 3.0 9.0 0.00 0.00 0.00 81 1018.4
20260902145506 85 9 6.0 10.0 0.00 0.00 0.00 79 1018.3
20260902145011 85 44 4.0 10.0 0.00 0.00 0.00 83 1018.3
20260902144533 85 65 6.0 10.0 0.00 0.00 0.00 81 1018.2
20260902144011 84 352 2.0 7.0 0.00 0.00 0.00 83 1018.2
20260902143512 84 349 3.0 8.0 0.00 0.00 0.00 83 1018.3
20260902143028 84 331 3.0 8.0 0.00 0.00 0.00 84 1018.2
20260902142514 83 28 4.0 6.0 0.00 0.00 0.00 84 1018.3
20260902142014 83 327 3.0 6.0 0.00 0.00 0.00 87 1018.2
20260902141535 82 17 1.0 5.0 0.00 0.00 0.00 86 1018.3
20260902141003 82 52 1.0 6.0 0.00 0.00 0.00 86 1018.3
20260902140504 83 5 3.0 6.0 0.00 0.00 0.00 85 1018.3
20260902140012 83 32 4.0 6.0 0.00 0.00 0.00 84 1018.2
20260902135504 83 352 3.0 6.0 0.00 0.00 0.00 85 1018.3
20260902135008 83 40 3.0 6.0 0.00 0.00 0.00 85 1018.3
20260902134518 83 352 3.0 5.0 0.00 0.00 0.00 85 1018.3
20260902134009 83 298 0.0 5.0 0.00 0.00 0.00 86 1018.3
20260902133516 82 352 2.0 5.0 0.00 0.00 0.00 86 1018.3
20260902133025 82 318 0.0 4.0 0.00 0.00 0.00 88 1018.3
20260902132516 82 11 2.0 5.0 0.00 0.00 0.00 88 1018.3
20260902132011 81 34 3.0 5.0 0.00 0.00 0.00 89 1018.4
20260902131542 81 40 3.0 5.0 0.00 0.00 0.00 89 1018.4
20260902131015 81 46 1.0 4.0 0.00 0.00 0.00 91 1018.3
20260902130503 80 43 1.0 4.0 0.00 0.00 0.00 92 1018.4
20260902130008 80 69 2.0 4.0 0.00 0.00 0.00 93 1018.3
20260902125506 79 85 3.0 4.0 0.00 0.00 0.00 93 1018.4
20260902125006 79 72 2.0 4.0 0.00 0.00 0.00 93 1018.4
20260902124516 79 81 2.0 3.0 0.00 0.00 0.00 94 1018.4
20260902124009 78 81 0.0 2.0 0.00 0.00 0.00 95 1018.4
20260902123509 78 65 0.0 0.0 0.00 0.00 0.00 95 1018.4
20260902123023 78 78 0.0 0.0 0.00 0.00 0.00 96 1018.3
20260902122514 77 78 0.0 0.0 0.00 0.00 0.00 96 1018.2
20260902122011 77 78 0.0 0.0 0.00 0.00 0.00 97 1018.2
20260902121528 76 40 0.0 0.0 0.00 0.00 0.00 97 1018.2
20260902121014 76 56 0.0 0.0 0.00 0.00 0.00 97 1018.1
20260902120516 76 49 0.0 0.0 0.00 0.00 0.00 97 1018.0
20260902120031 76 49 0.0 0.0 0.00 0.00 0.00 97 1018.0
20260902115505 75 40 0.0 0.0 0.00 0.00 0.00 97 1017.9
20260902115006 75 46 0.0 0.0 0.00 0.00 0.00 97 1017.9
20260902114519 75 49 0.0 0.0 0.00 0.00 0.00 97 1018.0
20260902114010 75 39 0.0 0.0 0.00 0.00 0.00 97 1018.0
20260902113509 75 39 0.0 0.0 0.00 0.00 0.00 97 1018.0
20260902113020 75 38 0.0 0.0 0.00 0.00 0.00 97 1017.9
20260902112513 75 51 0.0 0.0 0.00 0.00 0.00 97 1017.9
20260902112011 75 55 0.0 0.0 0.00 0.00 0.00 97 1017.9
20260902111527 74 55 0.0 0.0 0.00 0.00 0.00 97 1017.9
20260902111012 74 130 0.0 0.0 0.00 0.00 0.00 97 1017.8
20260902110515 74 130 0.0 0.0 0.00 0.00 0.00 97 1017.7
20260902110030 74 130 0.0 0.0 0.00 0.00 0.00 97 1017.7
20260902105516 74 130 0.0 0.0 0.00 0.00 0.00 97 1017.6
20260902105016 74 130 0.0 0.0 0.00 0.00 0.00 97 1017.5
20260902104517 74 130 0.0 0.0 0.00 0.00 0.00 97 1017.5
20260902104007 74 130 0.0 0.0 0.00 0.00 0.00 97 1017.5
20260902103509 74 130 0.0 0.0 0.00 0.00 0.00 97 1017.6
20260902103019 74 130 0.0 0.0 0.00 0.00 0.00 96 1017.6
20260902102510 74 130 0.0 0.0 0.00 0.00 0.00 96 1017.6
20260902102011 75 130 0.0 0.0 0.00 0.00 0.00 97 1017.6
20260902101527 75 130 0.0 0.0 0.00 0.00 0.00 97 1017.5
20260902101014 75 130 0.0 0.0 0.00 0.00 0.00 97 1017.4
20260902100515 75 130 0.0 0.0 0.00 0.00 0.00 97 1017.4
20260902100029 75 130 0.0 0.0 0.00 0.00 0.00 97 1017.3
20260902095517 75 130 0.0 0.0 0.00 0.00 0.00 97 1017.3
20260902095017 74 130 0.0 0.0 0.00 0.00 0.00 97 1017.2
20260902094533 74 130 0.0 0.0 0.00 0.00 0.00 97 1017.1
20260902094016 74 130 0.0 0.0 0.00 0.00 0.00 96 1017.0
20260902093508 74 130 0.0 0.0 0.00 0.00 0.00 96 1017.0
20260902093016 74 130 0.0 0.0 0.00 0.00 0.00 96 1016.9
20260902092512 74 130 0.0 0.0 0.00 0.00 0.00 96 1016.8
20260902092012 75 130 0.0 0.0 0.00 0.00 0.00 97 1016.7
20260902091554 75 130 0.0 0.0 0.00 0.00 0.00 97 1016.6
20260902091013 74 130 0.0 0.0 0.00 0.00 0.00 97 1016.7
20260902090513 74 130 0.0 0.0 0.00 0.00 0.00 96 1016.8
20260902090029 74 130 0.0 0.0 0.00 0.00 0.00 96 1016.8
20260902085514 75 130 0.0 0.0 0.00 0.00 0.00 96 1016.7
20260902085014 75 130 0.0 0.0 0.00 0.00 0.00 96 1016.7
20260902084535 75 130 0.0 0.0 0.00 0.00 0.00 96 1016.7
20260902084015 75 130 0.0 0.0 0.00 0.00 0.00 96 1016.6
20260902083519 75 130 0.0 0.0 0.00 0.00 0.00 96 1016.6
20260902083031 75 130 0.0 0.0 0.00 0.00 0.00 96 1016.6
20260902082508 75 130 0.0 0.0 0.00 0.00 0.00 96 1016.5
20260902082008 75 130 0.0 0.0 0.00 0.00 0.00 96 1016.5
20260902081530 75 130 0.0 0.0 0.00 0.00 0.00 96 1016.6
20260902081009 76 130 0.0 0.0 0.00 0.00 0.00 96 1016.6
20260902080513 76 130 0.0 0.0 0.00 0.00 0.00 96 1016.6
20260902080035 76 130 0.0 0.0 0.00 0.00 0.00 96 1016.6
20260902075510 76 130 0.0 0.0 0.00 0.00 0.00 96 1016.7
20260902075016 76 130 0.0 0.0 0.00 0.00 0.00 96 1016.8
20260902074510 76 130 0.0 0.0 0.00 0.00 0.00 96 1016.9
20260902074004 76 130 0.0 0.0 0.00 0.00 0.00 96 1016.8
20260902073506 76 130 0.0 0.0 0.00 0.00 0.00 96 1016.8
20260902073015 76 130 0.0 0.0 0.00 0.00 0.00 96 1016.9
20260902072507 76 130 0.0 0.0 0.00 0.00 0.00 96 1016.8
20260902072007 76 130 0.0 0.0 0.00 0.00 0.00 96 1016.8
20260902071545 76 130 0.0 0.0 0.00 0.00 0.00 96 1016.8
20260902071012 76 130 0.0 0.0 0.00 0.00 0.00 96 1016.7
20260902070511 76 130 0.0 0.0 0.00 0.00 0.00 96 1016.6
20260902070027 76 130 0.0 0.0 0.00 0.00 0.00 96 1016.6
20260902065518 76 130 0.0 0.0 0.00 0.00 0.00 95 1016.6
20260902065014 76 130 0.0 0.0 0.00 0.00 0.00 95 1016.6
20260902064531 76 130 0.0 0.0 0.00 0.00 0.00 96 1016.7
20260902064018 76 130 0.0 0.0 0.00 0.00 0.00 96 1016.8
20260902063503 76 130 0.0 0.0 0.00 0.00 0.00 96 1016.9
20260902063019 76 130 0.0 0.0 0.00 0.00 0.00 96 1016.9
20260902062505 77 130 0.0 0.0 0.00 0.00 0.00 96 1016.9
20260902062006 77 130 0.0 0.0 0.00 0.00 0.00 96 1017.0
20260902061531 77 130 0.0 0.0 0.00 0.00 0.00 96 1017.0
20260902061008 77 130 0.0 0.0 0.00 0.00 0.00 96 1017.0
20260902060512 77 130 0.0 0.0 0.00 0.00 0.00 96 1017.0
20260902060031 77 130 0.0 0.0 0.00 0.00 0.00 96 1017.0
20260902055516 77 130 0.0 0.0 0.00 0.00 0.00 96 1017.0
20260902055012 77 130 0.0 0.0 0.00 0.00 0.00 96 1017.1
20260902054538 77 130 0.0 0.0 0.00 0.00 0.00 96 1017.2
20260902054015 76 126 0.0 0.0 0.00 0.00 0.00 96 1017.1
20260902053514 76 93 0.0 2.0 0.00 0.00 0.00 95 1017.1